SWA3698 KTPA-KSAT

Flight info

Callsign SWA3698
Flight time 2h 22m
Altitude 40000
Route DORMR3 FROOT DCT ROZZI Y280 REDFN DCT MOLLR QERVO3
Aircraft B737/M-SDE2E3FGHIRWXY/LB1

Departure

Time 2026-04-24 22:24
Airport Tampa International Airport (KTPA)

Arrival

Time 2026-04-25 00:46
Airport San Antonio International Airport (KSAT)
Time Latitude Longitude Altitude Speed Heading
2026-04-24 21:58 27.98340 -82.53122 40 ft 0 kts 256°
2026-04-24 22:14 27.98342 -82.53113 42 ft 4 kts 252°
2026-04-24 22:15 27.98353 -82.53086 40 ft 4 kts 230°
2026-04-24 22:15 27.98373 -82.53069 40 ft 4 kts 187°
2026-04-24 22:15 27.98394 -82.53074 42 ft 1 kts 136°
2026-04-24 22:20 27.98389 -82.53068 42 ft 3 kts 136°
2026-04-24 22:21 27.98373 -82.53052 42 ft 6 kts 136°
2026-04-24 22:21 27.98339 -82.52978 41 ft 10 kts 65°
2026-04-24 22:21 27.98405 -82.52956 40 ft 10 kts
2026-04-24 22:21 27.98474 -82.52954 40 ft 10 kts
2026-04-24 22:22 27.98521 -82.52952 40 ft 10 kts
2026-04-24 22:22 27.98587 -82.52949 40 ft 9 kts
2026-04-24 22:22 27.98647 -82.52947 40 ft 8 kts
2026-04-24 22:22 27.98697 -82.52934 37 ft 6 kts 36°
2026-04-24 22:23 27.98711 -82.52909 38 ft 5 kts 73°
2026-04-24 22:23 27.98711 -82.52850 36 ft 10 kts 92°
2026-04-24 22:23 27.98690 -82.52822 36 ft 4 kts 167°
2026-04-24 22:23 27.98605 -82.52825 36 ft 39 kts 182°
2026-04-24 22:24 27.98034 -82.52846 37 ft 122 kts 182°
2026-04-24 22:24 27.96962 -82.52884 123 ft 179 kts 183°
2026-04-24 22:24 27.95669 -82.52900 872 ft 193 kts 184°
2026-04-24 22:24 27.94345 -82.53328 1482 ft 215 kts 208°
2026-04-24 22:25 27.92945 -82.54155 2016 ft 233 kts 208°
2026-04-24 22:25 27.91481 -82.55035 2725 ft 246 kts 207°
2026-04-24 22:25 27.89946 -82.56059 3340 ft 266 kts 221°
2026-04-24 22:25 27.88870 -82.57773 4352 ft 269 kts 241°
2026-04-24 22:26 27.87997 -82.59666 5348 ft 275 kts 242°
2026-04-24 22:26 27.87115 -82.61616 6302 ft 281 kts 242°
2026-04-24 22:26 27.86219 -82.63582 7343 ft 280 kts 242°
2026-04-24 22:26 27.85316 -82.65536 8373 ft 281 kts 243°
2026-04-24 22:27 27.84399 -82.67499 9322 ft 284 kts 243°
2026-04-24 22:27 27.83468 -82.69479 10248 ft 287 kts 243°
2026-04-24 22:27 27.82499 -82.71528 10706 ft 308 kts 243°
2026-04-24 22:27 27.81479 -82.73678 11586 ft 306 kts 243°
2026-04-24 22:28 27.80474 -82.75786 12602 ft 305 kts 243°
2026-04-24 22:28 27.79463 -82.77903 13432 ft 308 kts 243°
2026-04-24 22:28 27.78439 -82.80046 14207 ft 312 kts 243°
2026-04-24 22:28 27.77401 -82.82215 14950 ft 315 kts 244°
2026-04-24 22:29 27.75292 -82.86619 16428 ft 322 kts 244°
2026-04-24 22:29 27.74218 -82.88858 17170 ft 326 kts 244°
2026-04-24 22:29 27.73134 -82.91118 17911 ft 329 kts 244°
2026-04-24 22:30 27.72051 -82.93373 18573 ft 333 kts 244°
2026-04-24 22:30 27.70944 -82.95678 19238 ft 335 kts 244°
2026-04-24 22:30 27.69831 -82.97995 19904 ft 337 kts 244°
2026-04-24 22:30 27.68706 -83.00334 20546 ft 340 kts 244°
2026-04-24 22:31 27.67574 -83.02692 21189 ft 343 kts 246°
2026-04-24 22:31 27.66667 -83.05178 21800 ft 343 kts 255°
2026-04-24 22:31 27.66151 -83.07800 22436 ft 343 kts 265°
2026-04-24 22:31 27.65893 -83.10488 23083 ft 345 kts 266°
2026-04-24 22:32 27.65669 -83.13196 23675 ft 349 kts 266°
2026-04-24 22:32 27.65443 -83.15930 24212 ft 351 kts 266°
2026-04-24 22:32 27.65205 -83.18667 24782 ft 352 kts 266°
2026-04-24 22:32 27.64956 -83.21423 25324 ft 354 kts 266°
2026-04-24 22:33 27.64700 -83.24195 25857 ft 356 kts 265°
2026-04-24 22:33 27.64441 -83.26979 26381 ft 358 kts 265°
2026-04-24 22:33 27.64179 -83.29778 26903 ft 359 kts 265°
2026-04-24 22:33 27.63916 -83.32594 27423 ft 361 kts 265°
2026-04-24 22:34 27.63650 -83.35426 27925 ft 363 kts 265°
2026-04-24 22:34 27.63386 -83.38230 28424 ft 365 kts 265°
2026-04-24 22:34 27.63116 -83.41099 28911 ft 367 kts 265°
2026-04-24 22:34 27.62845 -83.43971 29385 ft 370 kts 264°
2026-04-24 22:35 27.62572 -83.46864 29852 ft 372 kts 264°
2026-04-24 22:35 27.62297 -83.49767 30268 ft 374 kts 264°
2026-04-24 22:35 27.62020 -83.52686 30669 ft 375 kts 264°
2026-04-24 22:35 27.61742 -83.55611 31111 ft 375 kts 264°
2026-04-24 22:36 27.61463 -83.58537 31532 ft 376 kts 264°
2026-04-24 22:36 27.61180 -83.61493 31685 ft 384 kts 264°
2026-04-24 22:36 27.60593 -83.67625 31839 ft 402 kts 264°
2026-04-24 22:37 27.59978 -83.74017 31984 ft 417 kts 264°
2026-04-24 22:37 27.59343 -83.80566 32226 ft 427 kts 264°
2026-04-24 22:38 27.59019 -83.83900 32517 ft 427 kts 264°
2026-04-24 22:38 27.58695 -83.87217 32978 ft 423 kts 264°
2026-04-24 22:38 27.58374 -83.90504 33473 ft 419 kts 264°
2026-04-24 22:38 27.58055 -83.93759 33873 ft 417 kts 264°
2026-04-24 22:39 27.57736 -83.97014 34168 ft 416 kts 265°
2026-04-24 22:39 27.57421 -84.00215 34413 ft 416 kts 265°
2026-04-24 22:39 27.57102 -84.03453 34675 ft 415 kts 265°
2026-04-24 22:39 27.56779 -84.06720 34953 ft 414 kts 265°
2026-04-24 22:40 27.56460 -84.09944 35222 ft 413 kts 265°
2026-04-24 22:40 27.56145 -84.13117 35466 ft 413 kts 265°
2026-04-24 22:40 27.56003 -84.16342 35692 ft 412 kts 272°
2026-04-24 22:40 27.56231 -84.19550 35922 ft 411 kts 279°
2026-04-24 22:41 27.56755 -84.22751 36189 ft 409 kts 280°
2026-04-24 22:41 27.57288 -84.25905 36422 ft 409 kts 280°
2026-04-24 22:41 27.57813 -84.29017 36625 ft 409 kts 280°
2026-04-24 22:41 27.58338 -84.32167 36858 ft 408 kts 280°
2026-04-24 22:42 27.58857 -84.35312 37098 ft 407 kts 280°
2026-04-24 22:42 27.59371 -84.38455 37324 ft 407 kts 280°
2026-04-24 22:42 27.59881 -84.41592 37532 ft 406 kts 280°
2026-04-24 22:42 27.60387 -84.44722 37742 ft 406 kts 280°
2026-04-24 22:43 27.60892 -84.47856 37955 ft 405 kts 280°
2026-04-24 22:43 27.61395 -84.50980 38162 ft 404 kts 280°
2026-04-24 22:43 27.61891 -84.54060 38365 ft 404 kts 281°
2026-04-24 22:43 27.62391 -84.57176 38548 ft 404 kts 281°
2026-04-24 22:44 27.62889 -84.60287 38706 ft 403 kts 281°
2026-04-24 22:44 27.63388 -84.63399 38835 ft 403 kts 281°
2026-04-24 22:44 27.63886 -84.66516 38978 ft 403 kts 281°
2026-04-24 22:44 27.64383 -84.69633 39156 ft 402 kts 281°
2026-04-24 22:45 27.64877 -84.72731 39319 ft 401 kts 281°
2026-04-24 22:45 27.65370 -84.75830 39437 ft 401 kts 281°
2026-04-24 22:45 27.65863 -84.78934 39540 ft 401 kts 281°
2026-04-24 22:45 27.66349 -84.81995 39660 ft 402 kts 281°
2026-04-24 22:46 27.66840 -84.85094 39788 ft 401 kts 281°
2026-04-24 22:46 27.67332 -84.88206 39904 ft 402 kts 281°
2026-04-24 22:46 27.68314 -84.94425 39937 ft 403 kts 281°
2026-04-24 22:47 27.69296 -85.00665 39940 ft 402 kts 281°
2026-04-24 22:47 27.70265 -85.06839 39942 ft 402 kts 281°
2026-04-24 22:48 27.71239 -85.13069 39942 ft 402 kts 281°
2026-04-24 22:48 27.72210 -85.19294 39945 ft 402 kts 281°
2026-04-24 22:49 27.73170 -85.25467 39941 ft 402 kts 281°
2026-04-24 22:49 27.74460 -85.31607 39932 ft 402 kts 290°
2026-04-24 22:50 27.76809 -85.37350 39934 ft 403 kts 295°
2026-04-24 22:50 27.79232 -85.43074 39946 ft 404 kts 294°
2026-04-24 22:51 27.81642 -85.48820 39944 ft 405 kts 294°
2026-04-24 22:51 27.84033 -85.54560 39944 ft 406 kts 294°
2026-04-24 22:52 27.86442 -85.60360 39937 ft 407 kts 294°
2026-04-24 22:52 27.88850 -85.66170 39940 ft 408 kts 294°
2026-04-24 22:53 27.91261 -85.71995 39942 ft 410 kts 294°
2026-04-24 22:53 27.93676 -85.77838 39945 ft 411 kts 294°
2026-04-24 22:54 27.96095 -85.83700 39937 ft 412 kts 294°
2026-04-24 22:54 27.98516 -85.89573 39940 ft 412 kts 294°
2026-04-24 22:55 28.00939 -85.95462 39941 ft 413 kts 294°
2026-04-24 22:55 28.03361 -86.01356 39939 ft 413 kts 294°
2026-04-24 22:56 28.05785 -86.07264 39937 ft 414 kts 294°
2026-04-24 22:56 28.08192 -86.13141 39942 ft 414 kts 294°
2026-04-24 22:57 28.10614 -86.19061 39939 ft 415 kts 294°
2026-04-24 22:57 28.13034 -86.24986 39939 ft 415 kts 294°
2026-04-24 22:58 28.15455 -86.30922 39936 ft 415 kts 294°
2026-04-24 22:58 28.17875 -86.36864 39939 ft 415 kts 294°
2026-04-24 22:59 28.20294 -86.42815 39934 ft 416 kts 294°
2026-04-24 23:00 28.23920 -86.51752 39935 ft 416 kts 294°
2026-04-24 23:00 28.26339 -86.57723 39934 ft 417 kts 294°
2026-04-24 23:01 28.28756 -86.63700 39934 ft 417 kts 294°
2026-04-24 23:01 28.31174 -86.69690 39929 ft 418 kts 294°
2026-04-24 23:02 28.33152 -86.75893 39937 ft 418 kts 289°
2026-04-24 23:02 28.34960 -86.82180 39939 ft 419 kts 288°
2026-04-24 23:03 28.36770 -86.88464 39930 ft 420 kts 289°
2026-04-24 23:03 28.38600 -86.94770 39926 ft 420 kts 289°
2026-04-24 23:04 28.40435 -87.01080 39925 ft 421 kts 289°
2026-04-24 23:04 28.42271 -87.07401 39925 ft 422 kts 289°
2026-04-24 23:05 28.44105 -87.13725 39929 ft 422 kts 289°
2026-04-24 23:05 28.45937 -87.20054 39926 ft 422 kts 289°
2026-04-24 23:06 28.47767 -87.26392 39925 ft 422 kts 289°
2026-04-24 23:06 28.49593 -87.32726 39931 ft 422 kts 289°
2026-04-24 23:07 28.51416 -87.39063 39927 ft 422 kts 289°
2026-04-24 23:07 28.53235 -87.45399 39926 ft 421 kts 289°
2026-04-24 23:08 28.54746 -87.50669 39923 ft 421 kts 289°
2026-04-24 23:08 28.56556 -87.56998 39929 ft 420 kts 289°
2026-04-24 23:09 28.58653 -87.64345 39924 ft 420 kts 289°
2026-04-24 23:09 28.60160 -87.69632 39925 ft 419 kts 289°
2026-04-24 23:10 28.61954 -87.75943 39926 ft 419 kts 289°
2026-04-24 23:10 28.63744 -87.82247 39925 ft 418 kts 289°
2026-04-24 23:11 28.65527 -87.88542 39920 ft 417 kts 289°
2026-04-24 23:11 28.67303 -87.94825 39926 ft 417 kts 289°
2026-04-24 23:12 28.69064 -88.01065 39926 ft 416 kts 289°
2026-04-24 23:12 28.70834 -88.07348 39927 ft 416 kts 289°
2026-04-24 23:13 28.72595 -88.13624 39924 ft 415 kts 288°
2026-04-24 23:13 28.74349 -88.19891 39927 ft 415 kts 288°
2026-04-24 23:14 28.76101 -88.26166 39925 ft 414 kts 288°
2026-04-24 23:14 28.77844 -88.32420 39925 ft 414 kts 288°
2026-04-24 23:15 28.79575 -88.38642 39920 ft 414 kts 288°
2026-04-24 23:15 28.81313 -88.44902 39919 ft 413 kts 288°
2026-04-24 23:16 28.83046 -88.51158 39921 ft 413 kts 288°
2026-04-24 23:16 28.84774 -88.57406 39921 ft 412 kts 288°
2026-04-24 23:17 28.86485 -88.63606 39916 ft 412 kts 288°
2026-04-24 23:17 28.88190 -88.69853 39917 ft 411 kts 286°
2026-04-24 23:18 28.89232 -88.76281 39910 ft 412 kts 281°
2026-04-24 23:18 28.90117 -88.82731 39922 ft 411 kts 281°
2026-04-24 23:19 28.91009 -88.89182 39923 ft 411 kts 281°
2026-04-24 23:19 28.91905 -88.95583 39907 ft 410 kts 281°
2026-04-24 23:20 28.92808 -89.02015 39913 ft 409 kts 281°
2026-04-24 23:20 28.93709 -89.08439 39913 ft 409 kts 281°
2026-04-24 23:21 28.94600 -89.14813 39903 ft 408 kts 281°
2026-04-24 23:21 28.95493 -89.21222 39906 ft 408 kts 281°
2026-04-24 23:22 28.96381 -89.27627 39910 ft 407 kts 281°
2026-04-24 23:22 28.97264 -89.34014 39906 ft 406 kts 281°
2026-04-24 23:23 28.98137 -89.40350 39909 ft 406 kts 281°
2026-04-24 23:23 28.99012 -89.46727 39911 ft 405 kts 281°
2026-04-24 23:24 28.99881 -89.53082 39906 ft 405 kts 281°
2026-04-24 23:24 29.00747 -89.59433 39904 ft 404 kts 281°
2026-04-24 23:25 29.01603 -89.65739 39903 ft 403 kts 281°
2026-04-24 23:25 29.02460 -89.72072 39899 ft 402 kts 281°
2026-04-24 23:26 29.03312 -89.78396 39902 ft 402 kts 281°
2026-04-24 23:26 29.04159 -89.84701 39900 ft 401 kts 281°
2026-04-24 23:27 29.04998 -89.90968 39897 ft 400 kts 281°
2026-04-24 23:27 29.05837 -89.97260 39900 ft 400 kts 281°
2026-04-24 23:28 29.06660 -90.03471 39868 ft 382 kts 281°
2026-04-24 23:28 29.07049 -90.06425 39892 ft 370 kts 281°
2026-04-24 23:28 29.07430 -90.09318 39879 ft 367 kts 281°
2026-04-24 23:29 29.08194 -90.15089 39884 ft 367 kts 281°
2026-04-24 23:29 29.08958 -90.20879 39898 ft 369 kts 281°
2026-04-24 23:30 29.09721 -90.26696 39899 ft 371 kts 281°
2026-04-24 23:30 29.10482 -90.32519 39897 ft 374 kts 281°
2026-04-24 23:31 29.11250 -90.38415 39894 ft 376 kts 281°
2026-04-24 23:31 29.12018 -90.44340 39895 ft 377 kts 281°
2026-04-24 23:32 29.12785 -90.50281 39889 ft 378 kts 281°
2026-04-24 23:32 29.13552 -90.56240 39884 ft 378 kts 281°
2026-04-24 23:33 29.14317 -90.62204 39885 ft 378 kts 281°
2026-04-24 23:33 29.15078 -90.68156 39889 ft 378 kts 281°
2026-04-24 23:34 29.15835 -90.74103 39880 ft 377 kts 281°
2026-04-24 23:34 29.16589 -90.80041 39875 ft 377 kts 281°
2026-04-24 23:35 29.17339 -90.85978 39884 ft 377 kts 281°
2026-04-24 23:35 29.18087 -90.91913 39879 ft 376 kts 281°
2026-04-24 23:36 29.18826 -90.97801 39879 ft 376 kts 280°
2026-04-24 23:36 29.19568 -91.03727 39879 ft 376 kts 280°
2026-04-24 23:37 29.20306 -91.09651 39881 ft 376 kts 280°
2026-04-24 23:37 29.21409 -91.18542 39878 ft 376 kts 280°
2026-04-24 23:38 29.22140 -91.24468 39874 ft 376 kts 280°
2026-04-24 23:38 29.22869 -91.30390 39876 ft 376 kts 280°
2026-04-24 23:39 29.23595 -91.36319 39875 ft 376 kts 280°
2026-04-24 23:39 29.24319 -91.42247 39875 ft 376 kts 280°
2026-04-24 23:40 29.25041 -91.48178 39876 ft 376 kts 280°
2026-04-24 23:40 29.25760 -91.54111 39873 ft 376 kts 280°
2026-04-24 23:41 29.26475 -91.60040 39875 ft 376 kts 280°
2026-04-24 23:41 29.27189 -91.65974 39874 ft 376 kts 280°
2026-04-24 23:42 29.27895 -91.71870 39875 ft 376 kts 280°
2026-04-24 23:42 29.28604 -91.77809 39869 ft 376 kts 280°
2026-04-24 23:43 29.29311 -91.83751 39868 ft 376 kts 280°
2026-04-24 23:43 29.30015 -91.89697 39865 ft 376 kts 280°
2026-04-24 23:44 29.30716 -91.95641 39863 ft 376 kts 279°
2026-04-24 23:44 29.31416 -92.01598 39860 ft 376 kts 279°
2026-04-24 23:45 29.32113 -92.07552 39863 ft 376 kts 279°
2026-04-24 23:45 29.32802 -92.13461 39861 ft 376 kts 279°
2026-04-24 23:46 29.33492 -92.19406 39858 ft 376 kts 279°
2026-04-24 23:46 29.34181 -92.25356 39858 ft 376 kts 279°
2026-04-24 23:47 29.34866 -92.31307 39852 ft 376 kts 279°
2026-04-24 23:47 29.35548 -92.37250 39853 ft 376 kts 279°
2026-04-24 23:48 29.36229 -92.43203 39850 ft 376 kts 279°
2026-04-24 23:48 29.36907 -92.49160 39849 ft 376 kts 279°
2026-04-24 23:49 29.37578 -92.55078 39849 ft 376 kts 279°
2026-04-24 23:49 29.38251 -92.61035 39848 ft 376 kts 279°
2026-04-24 23:50 29.38921 -92.66993 39848 ft 377 kts 279°
2026-04-24 23:50 29.39587 -92.72944 39850 ft 377 kts 279°
2026-04-24 23:51 29.40253 -92.78912 39851 ft 377 kts 279°
2026-04-24 23:51 29.40916 -92.84877 39849 ft 377 kts 279°
2026-04-24 23:52 29.41576 -92.90844 39849 ft 378 kts 279°
2026-04-24 23:52 29.42234 -92.96822 39847 ft 378 kts 279°
2026-04-24 23:53 29.42890 -93.02802 39850 ft 378 kts 279°
2026-04-24 23:53 29.43544 -93.08789 39848 ft 378 kts 279°
2026-04-24 23:54 29.44086 -93.13767 39848 ft 378 kts 279°
2026-04-24 23:54 29.44736 -93.19763 39848 ft 379 kts 279°
2026-04-24 23:55 29.45383 -93.25758 39846 ft 379 kts 279°
2026-04-24 23:55 29.46132 -93.32728 39846 ft 379 kts 279°
2026-04-24 23:56 29.46670 -93.37753 39841 ft 379 kts 279°
2026-04-24 23:56 29.47309 -93.43754 39841 ft 379 kts 279°
2026-04-24 23:57 29.47942 -93.49719 39839 ft 379 kts 279°
2026-04-24 23:57 29.48576 -93.55718 39840 ft 379 kts 279°
2026-04-24 23:58 29.49207 -93.61722 39836 ft 379 kts 279°
2026-04-24 23:58 29.49837 -93.67736 39833 ft 379 kts 279°
2026-04-24 23:59 29.50463 -93.73742 39836 ft 379 kts 279°
2026-04-24 23:59 29.51087 -93.79756 39833 ft 379 kts 279°
2026-04-25 00:00 29.51708 -93.85769 39831 ft 379 kts 279°
2026-04-25 00:00 29.52327 -93.91784 39829 ft 379 kts 278°
2026-04-25 00:01 29.52944 -93.97810 39830 ft 379 kts 278°
2026-04-25 00:01 29.53558 -94.03834 39830 ft 379 kts 278°
2026-04-25 00:02 29.54166 -94.09823 39831 ft 379 kts 278°
2026-04-25 00:02 29.54774 -94.15844 39832 ft 379 kts 278°
2026-04-25 00:03 29.55378 -94.21859 39830 ft 379 kts 278°
2026-04-25 00:03 29.55982 -94.27886 39831 ft 379 kts 278°
2026-04-25 00:04 29.56581 -94.33903 39830 ft 379 kts 278°
2026-04-25 00:04 29.57179 -94.39930 39831 ft 379 kts 278°
2026-04-25 00:05 29.57478 -94.42959 39466 ft 385 kts 278°
2026-04-25 00:05 29.57778 -94.46003 39178 ft 380 kts 278°
2026-04-25 00:05 29.58071 -94.48989 38832 ft 373 kts 278°
2026-04-25 00:05 29.58358 -94.51924 38480 ft 366 kts 278°
2026-04-25 00:06 29.58640 -94.54808 38058 ft 360 kts 278°
2026-04-25 00:06 29.58917 -94.57649 37653 ft 356 kts 278°
2026-04-25 00:06 29.59192 -94.60470 37265 ft 356 kts 278°
2026-04-25 00:06 29.59469 -94.63310 36885 ft 361 kts 278°
2026-04-25 00:07 29.59751 -94.66199 36520 ft 367 kts 278°
2026-04-25 00:07 29.60035 -94.69126 36143 ft 369 kts 278°
2026-04-25 00:07 29.60318 -94.72054 35781 ft 369 kts 278°
2026-04-25 00:07 29.60600 -94.74983 35414 ft 370 kts 278°
2026-04-25 00:08 29.60882 -94.77920 35044 ft 370 kts 278°
2026-04-25 00:08 29.61163 -94.80859 34693 ft 370 kts 278°
2026-04-25 00:08 29.61445 -94.83803 34341 ft 371 kts 278°
2026-04-25 00:08 29.61726 -94.86753 33998 ft 372 kts 278°
2026-04-25 00:09 29.62008 -94.89705 33626 ft 373 kts 278°
2026-04-25 00:09 29.62286 -94.92634 33238 ft 374 kts 277°
2026-04-25 00:09 29.62573 -94.95660 32845 ft 377 kts 277°
2026-04-25 00:09 29.62853 -94.98620 32462 ft 379 kts 277°
2026-04-25 00:10 29.63138 -95.01645 32080 ft 382 kts 277°
2026-04-25 00:10 29.63424 -95.04683 31712 ft 384 kts 277°
2026-04-25 00:10 29.63711 -95.07746 31357 ft 387 kts 277°
2026-04-25 00:10 29.63999 -95.10826 31019 ft 389 kts 277°
2026-04-25 00:11 29.64289 -95.13924 30689 ft 391 kts 277°
2026-04-25 00:11 29.64579 -95.17044 30355 ft 393 kts 277°
2026-04-25 00:11 29.64870 -95.20176 30030 ft 396 kts 277°
2026-04-25 00:11 29.65163 -95.23331 29843 ft 398 kts 277°
2026-04-25 00:12 29.65795 -95.29732 29799 ft 402 kts 279°
2026-04-25 00:12 29.66669 -95.36053 29795 ft 400 kts 280°
2026-04-25 00:13 29.67584 -95.42334 29791 ft 400 kts 279°
2026-04-25 00:13 29.68481 -95.48659 29804 ft 401 kts 279°
2026-04-25 00:14 29.69361 -95.54989 29798 ft 401 kts 279°
2026-04-25 00:14 29.70233 -95.61322 29794 ft 401 kts 279°
2026-04-25 00:15 29.71102 -95.67657 29795 ft 401 kts 279°
2026-04-25 00:15 29.71968 -95.73996 29790 ft 401 kts 279°
2026-04-25 00:16 29.72832 -95.80341 29803 ft 401 kts 279°
2026-04-25 00:16 29.73693 -95.86688 29809 ft 401 kts 279°
2026-04-25 00:17 29.74547 -95.93004 29808 ft 401 kts 279°
2026-04-25 00:17 29.75402 -95.99355 29801 ft 402 kts 279°
2026-04-25 00:18 29.76254 -96.05704 29783 ft 402 kts 279°
2026-04-25 00:18 29.77103 -96.12054 29765 ft 402 kts 279°
2026-04-25 00:19 29.77946 -96.18412 29743 ft 402 kts 278°
2026-04-25 00:19 29.78499 -96.24811 29750 ft 402 kts 275°
2026-04-25 00:20 29.78927 -96.31184 29741 ft 402 kts 275°
2026-04-25 00:20 29.79382 -96.37596 29737 ft 402 kts 275°
2026-04-25 00:21 29.79856 -96.44007 29725 ft 402 kts 275°
2026-04-25 00:21 29.80330 -96.50421 29707 ft 402 kts 275°
2026-04-25 00:22 29.80802 -96.56845 29686 ft 402 kts 275°
2026-04-25 00:22 29.81274 -96.63259 29670 ft 402 kts 275°
2026-04-25 00:23 29.81749 -96.69690 29667 ft 403 kts 275°
2026-04-25 00:23 29.81985 -96.72911 29459 ft 405 kts 275°
2026-04-25 00:23 29.82221 -96.76145 29119 ft 404 kts 275°
2026-04-25 00:24 29.82456 -96.79374 28795 ft 406 kts 275°
2026-04-25 00:24 29.82692 -96.82618 28487 ft 408 kts 275°
2026-04-25 00:24 29.82928 -96.85884 28174 ft 410 kts 275°
2026-04-25 00:24 29.83164 -96.89165 27876 ft 411 kts 275°
2026-04-25 00:25 29.83401 -96.92459 27529 ft 414 kts 275°
2026-04-25 00:25 29.83637 -96.95764 27180 ft 415 kts 275°
2026-04-25 00:25 29.83874 -96.99086 26833 ft 417 kts 275°
2026-04-25 00:25 29.84108 -97.02379 26496 ft 418 kts 275°
2026-04-25 00:26 29.84344 -97.05718 26147 ft 419 kts 275°
2026-04-25 00:26 29.84581 -97.09077 25818 ft 420 kts 276°
2026-04-25 00:26 29.84817 -97.12436 25484 ft 421 kts 276°
2026-04-25 00:26 29.85053 -97.15808 25144 ft 422 kts 276°
2026-04-25 00:27 29.85287 -97.19163 24782 ft 415 kts 276°
2026-04-25 00:27 29.85513 -97.22436 24399 ft 404 kts 276°
2026-04-25 00:27 29.85734 -97.25628 23998 ft 394 kts 276°
2026-04-25 00:27 29.85950 -97.28755 23510 ft 389 kts 276°
2026-04-25 00:28 29.86163 -97.31848 22989 ft 385 kts 276°
2026-04-25 00:28 29.86371 -97.34874 22405 ft 382 kts 276°
2026-04-25 00:28 29.86583 -97.37952 21845 ft 380 kts 275°
2026-04-25 00:28 29.86787 -97.40947 21295 ft 378 kts 275°
2026-04-25 00:29 29.86991 -97.43954 20759 ft 376 kts 275°
2026-04-25 00:29 29.87195 -97.46964 20226 ft 375 kts 275°
2026-04-25 00:29 29.87396 -97.49959 19706 ft 374 kts 275°
2026-04-25 00:29 29.87597 -97.52948 19196 ft 373 kts 274°
2026-04-25 00:30 29.87796 -97.55923 18695 ft 373 kts 274°
2026-04-25 00:30 29.87994 -97.58899 18200 ft 372 kts 274°
2026-04-25 00:30 29.88191 -97.61866 17658 ft 371 kts 274°
2026-04-25 00:30 29.88387 -97.64830 17096 ft 369 kts 274°
2026-04-25 00:31 29.88580 -97.67740 16536 ft 360 kts 274°
2026-04-25 00:31 29.88767 -97.70588 16036 ft 353 kts 274°
2026-04-25 00:31 29.88951 -97.73391 15550 ft 349 kts 274°
2026-04-25 00:31 29.89133 -97.76182 15082 ft 350 kts 274°
2026-04-25 00:32 29.89317 -97.78991 14610 ft 353 kts 274°
2026-04-25 00:32 29.89500 -97.81821 14155 ft 353 kts 274°
2026-04-25 00:32 29.89662 -97.84622 13684 ft 350 kts 272°
2026-04-25 00:32 29.89753 -97.87386 13208 ft 348 kts 271°
2026-04-25 00:33 29.89836 -97.90128 13045 ft 334 kts 271°
2026-04-25 00:33 29.89905 -97.92753 12910 ft 325 kts 269°
2026-04-25 00:33 29.89346 -97.95247 12635 ft 325 kts 241°
2026-04-25 00:33 29.87811 -97.97182 12294 ft 333 kts 219°
2026-04-25 00:34 29.85986 -97.98837 11933 ft 333 kts 225°
2026-04-25 00:34 29.84435 -98.00802 11566 ft 329 kts 234°
2026-04-25 00:34 29.83140 -98.02908 11191 ft 324 kts 238°
2026-04-25 00:34 29.81924 -98.05085 11019 ft 325 kts 239°
2026-04-25 00:35 29.80761 -98.07323 10985 ft 326 kts 243°
2026-04-25 00:35 29.79750 -98.09647 10988 ft 322 kts 245°
2026-04-25 00:35 29.78800 -98.11968 10981 ft 321 kts 245°
2026-04-25 00:35 29.78013 -98.14368 10969 ft 321 kts 258°
2026-04-25 00:36 29.77652 -98.16909 10987 ft 321 kts 262°
2026-04-25 00:36 29.77371 -98.19476 10771 ft 325 kts 263°
2026-04-25 00:36 29.77108 -98.22037 10392 ft 315 kts 263°
2026-04-25 00:36 29.76869 -98.24459 10025 ft 302 kts 263°
2026-04-25 00:37 29.76639 -98.26842 9663 ft 290 kts 263°
2026-04-25 00:37 29.76430 -98.29075 9271 ft 280 kts 263°
2026-04-25 00:37 29.76222 -98.31266 8892 ft 272 kts 264°
2026-04-25 00:37 29.76009 -98.33437 8511 ft 268 kts 264°
2026-04-25 00:38 29.75792 -98.35568 8155 ft 268 kts 264°
2026-04-25 00:38 29.75568 -98.37677 7807 ft 269 kts 264°
2026-04-25 00:38 29.75329 -98.39829 7434 ft 273 kts 264°
2026-04-25 00:38 29.75079 -98.42002 7057 ft 273 kts 264°
2026-04-25 00:39 29.74821 -98.44153 6679 ft 270 kts 264°
2026-04-25 00:39 29.74555 -98.46290 6288 ft 269 kts 264°
2026-04-25 00:39 29.74281 -98.48415 5875 ft 268 kts 263°
2026-04-25 00:39 29.74012 -98.50530 5464 ft 266 kts 263°
2026-04-25 00:40 29.73753 -98.52632 5070 ft 264 kts 263°
2026-04-25 00:40 29.73512 -98.54718 4656 ft 260 kts 263°
2026-04-25 00:40 29.73367 -98.56077 4417 ft 256 kts 263°
2026-04-25 00:40 29.72895 -98.58004 4031 ft 249 kts 238°
2026-04-25 00:41 29.71419 -98.59957 3619 ft 242 kts 224°
2026-04-25 00:41 29.70229 -98.61314 3294 ft 237 kts 224°
2026-04-25 00:41 29.69081 -98.62611 3109 ft 227 kts 223°
2026-04-25 00:41 29.68262 -98.63357 3005 ft 220 kts 205°
2026-04-25 00:42 29.66818 -98.63664 2974 ft 208 kts 172°
2026-04-25 00:42 29.65481 -98.63223 2963 ft 195 kts 149°
2026-04-25 00:42 29.64631 -98.62092 3021 ft 190 kts 123°
2026-04-25 00:42 29.63808 -98.60919 2986 ft 184 kts 135°
2026-04-25 00:43 29.62952 -98.59822 3005 ft 184 kts 132°
2026-04-25 00:43 29.62146 -98.58751 2969 ft 168 kts 133°
2026-04-25 00:43 29.61373 -98.57747 2833 ft 168 kts 133°
2026-04-25 00:43 29.60610 -98.56761 2629 ft 166 kts 134°
2026-04-25 00:44 29.59857 -98.55787 2413 ft 158 kts 134°
2026-04-25 00:44 29.59152 -98.54876 2258 ft 144 kts 134°
2026-04-25 00:44 29.58491 -98.54021 2054 ft 140 kts 134°
2026-04-25 00:44 29.57851 -98.53192 1881 ft 139 kts 134°
2026-04-25 00:45 29.57201 -98.52354 1705 ft 140 kts 133°
2026-04-25 00:45 29.56551 -98.51513 1528 ft 141 kts 133°
2026-04-25 00:45 29.55905 -98.50667 1356 ft 141 kts 132°
2026-04-25 00:45 29.55261 -98.49822 1165 ft 141 kts 132°
2026-04-25 00:46 29.54612 -98.48982 956 ft 140 kts 133°
2026-04-25 00:46 29.53973 -98.48163 811 ft 133 kts 132°
2026-04-25 00:46 29.53197 -98.47170 797 ft 34 kts 132°
2026-04-25 00:47 29.53088 -98.47065 793 ft 15 kts 175°
2026-04-25 00:47 29.53024 -98.47101 793 ft 7 kts 221°
2026-04-25 00:47 29.53019 -98.47106 793 ft 0 kts 221°
2026-04-25 00:48 29.53013 -98.47112 793 ft 3 kts 222°
2026-04-25 00:48 29.52983 -98.47145 793 ft 7 kts 232°
2026-04-25 00:49 29.52998 -98.47202 794 ft 8 kts 314°
2026-04-25 00:49 29.53003 -98.47253 795 ft 8 kts 195°
2026-04-25 00:49 29.52981 -98.47251 794 ft 2 kts 169°
2026-04-25 00:49 29.52958 -98.47244 794 ft 5 kts 167°
2026-04-25 00:50 29.52945 -98.47241 794 ft 0 kts 166°